Weather History for KDGW - July, 2012

Change the Weather History Date:

Friday, July 6, 2012

  Actual Average Record
Temperature  
Mean Temperature 72 °F 70 °F  
Max Temperature 86 °F 87 °F 98 °F (2000)
Min Temperature 57 °F 53 °F 44 °F (2004)
Degree Days  
Heating Degree Days 0 1  
Month to date heating degree days 0 6  
Since 1 June heating degree days 20 116  
Since 1 July heating degree days 0 6  
Cooling Degree Days 7 5  
Month to date cooling degree days 78 30  
Year to date cooling degree days 285 107  
Since 1 June cooling degree days 266 101  
Growing Degree Days 20 (Base 50)    
Moisture  
Dew Point 50 °F    
Average Humidity 57    
Maximum Humidity 86    
Minimum Humidity 27    
Precipitation  
Precipitation 0.00 in 0.05 in 0.20 in (1967)
Month to date precipitation 0.04 0.30  
Year to date precipitation 3.35 7.85  
Sea Level Pressure  
Sea Level Pressure 30.03 in    
Wind  
Wind Speed 11 mph (NNW)    
Max Wind Speed 20 mph    
Max Gust Speed 26 mph    
Visibility 10 miles    
Events      
T = Trace of Precipitation, MM = Missing Value Source: NWS Daily Summary

Daily Weather History Graph

Daily Weather History Graph

Search for Another Location

Airport or City:

Trip Planner

Search our weather history database for the weather conditions in past years. The results will help you decide how hot, cold, wet, or windy it might be!

Date:

Astronomy

Jul. 06, 2012 Rise Set
Actual Time 5:30 AM MDT 8:42 PM MDT
Civil Twilight 4:55 AM MDT 9:16 PM MDT
Nautical Twilight 4:10 AM MDT 10:01 PM MDT
Astronomical Twilight 3:16 AM MDT 10:55 PM MDT
Moon 10:26 PM MDT (7/6) 8:58 AM MDT (7/6)
Length of Visible Light 16h 21m
Length of Day
15h 12m
Waning Gibbous, 89% of the Moon is Illuminated
Jul 6
Waning Gibbous
Jul 10
Last Quarter
Jul 18
New
Jul 26
First Quarter
Aug 1
Full

Hourly Weather History & Observations

Time (MDT) Temp. Dew Point Humidity Pressure Visibility Wind Dir Wind Speed Gust Speed Precip Events Conditions
12:53 AM 60.1 °F 57.0 °F 90% 30.03 in 10.0 mi NW 13.8 mph - 0.00 in   Clear
1:53 AM 57.9 °F 53.1 °F 84% 29.87 in 10.0 mi WNW 17.3 mph - N/A   Partly Cloudy
2:53 AM 57.0 °F 53.1 °F 87% 29.91 in 10.0 mi NW 11.5 mph - N/A   Clear
3:53 AM 57.0 °F 52.0 °F 83% 29.92 in 10.0 mi NNW 11.5 mph - N/A   Clear
4:53 AM 57.0 °F 52.0 °F 83% 29.97 in 10.0 mi WNW 10.4 mph - N/A   Clear
5:53 AM 57.0 °F 52.0 °F 83% 30.01 in 10.0 mi WNW 9.2 mph - N/A   Clear
6:53 AM 59.0 °F 52.0 °F 78% 30.03 in 10.0 mi WNW 8.1 mph - N/A   Mostly Cloudy
7:53 AM 62.1 °F 52.0 °F 70% 30.04 in 10.0 mi NW 10.4 mph - N/A   Clear
8:53 AM 66.9 °F 53.1 °F 61% 30.05 in 10.0 mi NW 12.7 mph - N/A   Clear
9:53 AM 72.0 °F 53.1 °F 51% 30.04 in 10.0 mi WNW 15.0 mph - N/A   Clear
10:53 AM 73.9 °F 50.0 °F 43% 30.04 in 10.0 mi NW 10.4 mph 17.3 mph N/A   Clear
11:53 AM 77.0 °F 50.0 °F 39% 30.06 in 10.0 mi NW 10.4 mph 18.4 mph N/A   Mostly Cloudy
12:53 PM 80.1 °F 48.9 °F 34% 30.05 in 10.0 mi NNW 9.2 mph 21.9 mph N/A   Partly Cloudy
1:53 PM 82.0 °F 48.0 °F 30% 30.05 in 10.0 mi NNW 13.8 mph 20.7 mph N/A   Partly Cloudy
2:53 PM 82.9 °F 46.9 °F 28% 30.05 in 10.0 mi WNW 10.4 mph 23.0 mph N/A   Scattered Clouds
3:53 PM 82.0 °F 46.9 °F 29% 30.05 in 10.0 mi NW 10.4 mph 20.7 mph N/A   Mostly Cloudy
4:53 PM 84.0 °F 46.0 °F 26% 30.04 in 10.0 mi NW 8.1 mph 19.6 mph N/A   Mostly Cloudy
5:53 PM 82.0 °F 46.0 °F 28% 30.05 in 10.0 mi North 15.0 mph 19.6 mph N/A   Overcast
6:53 PM 82.0 °F 46.9 °F 29% 30.06 in 10.0 mi North 12.7 mph - N/A   Scattered Clouds
7:53 PM 78.1 °F 43.0 °F 29% 30.09 in 10.0 mi North 16.1 mph - N/A   Clear
8:53 PM 73.0 °F 43.0 °F 34% 30.10 in 10.0 mi NNE 11.5 mph - N/A   Clear
9:53 PM 71.1 °F 46.9 °F 42% 30.13 in 10.0 mi NNE 5.8 mph - N/A   Clear
11:53 PM 66.0 °F 52.0 °F 60% 30.15 in 10.0 mi ENE 3.5 mph - N/A   Clear